星链-30076 (STARLINK-30076 )

导读

STARLINK-30076是美国太空探索技术公司(SpaceX)星链互联网卫星星座中的一颗卫星,于北京时间2023年6月4日发射升空,作为星链星座的组网卫星之一,它承担着为全球提供低延迟、高速率宽带互联网接入服务的任务,进一步扩展了星链星座的覆盖范围与服务能力。

基本信息
目录编号:
56839
目录名称:
STARLINK-30076
国际标识:
2023-079S
轨道中心:
EARTH
卫星名称:
星链-30076
卫星全名:
星链-30076 (STARLINK-30076 )
卫星状态:
在轨 (已飞行1188 天)
发射日期:
2023-06-04 UTC
国别 :
美国 (US)
星等 :
--
轨道信息
数据来源 国际轨道数据 AOE轨道数据
星历时间 2026-09-04T04:05:27+0800
11小时前
查看轨道信息
2026-09-03T22:00:00+0800
17小时前
查看轨道信息
半长轴 6861.199km 6861.168km
偏心率 0.0001034 0.0002252
轨道倾角 43.001° 43.003°
近地点辐角 279.978° 230.692°
升交点赤经 180.949° 182.384°
平近点角 80.096° 172.177°
近地点 482.352km 481.485km
远地点 483.772km 484.577km
周期 94.267分钟 94.266分钟
每日圈数 15.275759 15.275861
详细信息
固有亮度:
5
最大亮度:
0.5
卫星平台:
Starlink v2.0 mini
覆盖范围:
全球
运营商:
太空探索技术公司
运营商所在国:
美国
制造商(研发单位):
太空探索技术公司
制造商所在国:
美国
使用方式:
暂无
卫星简介
星链(Starlink)计划是由太空探索技术公司(SpaceX)提出的一个巨型低轨卫星互联网星座项目,计划在2019年至2024年间在太空搭建由约1.2万颗卫星组成的“星链”网络,其中1584颗将部署在地球上空550千米处的近地轨道,并从2020年开始工作。该卫星仍在工作。
2D轨道图
3D轨道图
轨道高度分析图
轨道倾角分析图
轨道综合分析图
查看轨道综合分析图
交会数据列表
事件ID 空间交会对象 最接近时刻(TCA) 交会距离 交会风险概率(CRP) 交会风险指数(CRI) 操作
CDM_260904-071005-683906-242821
2026-09-04T
07:10:38+0000
1.099 km
极远距离
1.47439E-5 中风险 0.58
CDM_260904-053605-683906-242821
2026-09-04T
05:36:29+0000
1.114 km
极远距离
1.406915E-5 中风险 0.58
CDM_260904-040205-683906-242821
2026-09-04T
04:02:19+0000
2.679 km
极远距离
1.239853E-6 低风险 0.37
CDM_260904-084405-683906-242821
2026-09-04T
08:44:47+0000
2.715 km
极远距离
1.215373E-6 低风险 0.37